Pau, France

5:29 PM CEST on September 24, 2017 (GMT +0200)
Pau / Pyrenees

Weather History for LFBP - November, 2012

Change the Weather History Date:

Thursday, November 8, 2012

  Actual Average Record
Temperature  
Mean Temperature 55 °F -  
Max Temperature 69 °F 54 °F 80 °F (2015)
Min Temperature 41 °F 39 °F 30 °F (2007)
Degree Days  
Heating Degree Days 10    
Growing Degree Days 5 (Base 50)    
Moisture  
Dew Point 42 °F    
Average Humidity 69    
Maximum Humidity 93    
Minimum Humidity 31    
Precipitation  
Precipitation 0.00 in - - ()
Sea Level Pressure  
Sea Level Pressure 30.09 in    
Wind  
Wind Speed 3 mph ()    
Max Wind Speed 8 mph    
Max Gust Speed -    
Visibility 6.2 miles    
Events Rain    
Averages and records for this station are not official NWS values.
T = Trace of Precipitation, MM = Missing Value Source: Averaged Metar Reports

Daily Weather History Graph

Daily Weather History Graph

Search for Another Location

Airport or City:

Trip Planner

Search our weather history database for the weather conditions in past years. The results will help you decide how hot, cold, wet, or windy it might be!

Date:

Astronomy

Nov. 08, 2012 Rise Set
Actual Time 7:46 AM CET 5:44 PM CET
Civil Twilight 7:16 AM CET 6:14 PM CET
Nautical Twilight 6:41 AM CET 6:48 PM CET
Astronomical Twilight 6:08 AM CET 7:21 PM CET
Moon 1:15 AM CET (11/8) 2:26 PM CET (11/8)
Length of Visible Light 10h 58m
Length of Day
9h 57m
Waning Crescent, 35% of the Moon is Illuminated
Nov 8
Waning Crescent
Nov 13
New
Nov 20
First Quarter
Nov 28
Full
Dec 6
Last Quarter

Hourly Weather History & Observations

Time (CET) Temp. Windchill Dew Point Humidity Pressure Visibility Wind Dir Wind Speed Gust Speed Precip Events Conditions
12:00 AM 41.0 °F 39.0 °F 37.4 °F 87% 30.21 in 6.2 mi SSE 3.5 mph - N/A   Overcast
12:30 AM 41.0 °F - 39.2 °F 93% 30.21 in 6.2 mi Calm Calm - N/A Rain Light Rain
1:00 AM 42.8 °F 39.3 °F 39.2 °F 87% 30.21 in 6.2 mi SE 5.8 mph - N/A   Overcast
1:30 AM 44.6 °F 43.1 °F 39.2 °F 81% 30.18 in 6.2 mi SE 3.5 mph - N/A   Overcast
2:00 AM 44.6 °F 42.2 °F 39.2 °F 81% 30.15 in 6.2 mi SE 4.6 mph - N/A Rain Light Rain
2:30 AM 44.6 °F 43.1 °F 41.0 °F 87% 30.18 in 6.2 mi South 3.5 mph - N/A   Overcast
3:00 AM 44.6 °F 43.1 °F 41.0 °F 87% 30.15 in 6.2 mi Variable 3.5 mph - N/A   Overcast
3:30 AM 44.6 °F 43.1 °F 41.0 °F 87% 30.15 in 6.2 mi Variable 3.5 mph - N/A   Overcast
4:00 AM 44.6 °F 43.1 °F 41.0 °F 87% 30.15 in 6.2 mi ESE 3.5 mph - N/A   Overcast
4:30 AM 46.4 °F 43.5 °F 39.2 °F 76% 30.12 in 6.2 mi ESE 5.8 mph - N/A   Unknown
5:00 AM 46.4 °F 45.2 °F 39.2 °F 76% 30.09 in 6.2 mi East 3.5 mph - N/A   Unknown
5:30 AM 46.4 °F 45.2 °F 39.2 °F 76% 30.09 in 6.2 mi East 3.5 mph - N/A   Overcast
6:00 AM 44.6 °F 43.1 °F 41.0 °F 87% 30.12 in 6.2 mi NE 3.5 mph - N/A   Mostly Cloudy
6:30 AM 44.6 °F - 41.0 °F 87% 30.12 in 6.2 mi Variable 2.3 mph - N/A   Mostly Cloudy
7:00 AM 46.4 °F - 41.0 °F 81% 30.09 in 6.2 mi Variable 1.2 mph - N/A   Mostly Cloudy
7:30 AM 44.6 °F 43.1 °F 41.0 °F 87% 30.09 in 6.2 mi SSE 3.5 mph - N/A   Mostly Cloudy
8:00 AM 44.6 °F - 41.0 °F 87% 30.12 in 6.2 mi Calm Calm - N/A   Mostly Cloudy
8:30 AM 46.4 °F 45.2 °F 41.0 °F 81% 30.12 in 6.2 mi Variable 3.5 mph - N/A   Mostly Cloudy
9:00 AM 46.4 °F - 41.0 °F 81% 30.12 in 6.2 mi Variable 1.2 mph - N/A   Scattered Clouds
9:30 AM 51.8 °F - 41.0 °F 67% 30.12 in 6.2 mi SSE 3.5 mph - N/A   Scattered Clouds
10:00 AM 53.6 °F - 42.8 °F 67% 30.12 in 6.2 mi Variable 3.5 mph - N/A   Scattered Clouds
10:30 AM 57.2 °F - 41.0 °F 55% 30.12 in 6.2 mi Variable 2.3 mph - N/A   Scattered Clouds
11:00 AM 57.2 °F - 41.0 °F 55% 30.12 in 6.2 mi Variable 2.3 mph - N/A   Scattered Clouds
11:30 AM 59.0 °F - 41.0 °F 51% 30.12 in 6.2 mi Variable 2.3 mph - N/A   Scattered Clouds
12:00 PM 62.6 °F - 41.0 °F 45% 30.09 in 6.2 mi Variable 3.5 mph - N/A   Scattered Clouds
12:30 PM 66.2 °F - 41.0 °F 40% 30.09 in 6.2 mi South 3.5 mph - N/A   Scattered Clouds
1:00 PM 66.2 °F - 42.8 °F 43% 30.06 in 6.2 mi Variable 2.3 mph - N/A   Scattered Clouds
1:30 PM 68.0 °F - 39.2 °F 35% 30.06 in 6.2 mi Variable 3.5 mph - N/A   Scattered Clouds
2:00 PM 69.8 °F - 37.4 °F 31% 30.06 in 6.2 mi East 8.1 mph - N/A   Scattered Clouds
2:30 PM 68.0 °F - 39.2 °F 35% 30.06 in 6.2 mi Variable 3.5 mph - N/A   Scattered Clouds
3:00 PM 66.2 °F - 41.0 °F 40% 30.06 in 6.2 mi NE 5.8 mph - N/A   Mostly Cloudy
3:30 PM 64.4 °F - 42.8 °F 45% 30.06 in 6.2 mi ENE 6.9 mph - N/A   Mostly Cloudy
4:00 PM 62.6 °F - 42.8 °F 48% 30.06 in 6.2 mi NE 6.9 mph - N/A   Mostly Cloudy
4:30 PM 62.6 °F - 42.8 °F 48% 30.06 in 6.2 mi East 6.9 mph - N/A   Mostly Cloudy
5:00 PM 60.8 °F - 44.6 °F 55% 30.06 in 6.2 mi ESE 5.8 mph - N/A   Mostly Cloudy
5:30 PM 59.0 °F - 44.6 °F 59% 30.06 in 6.2 mi Variable 2.3 mph - N/A   Mostly Cloudy
6:00 PM 59.0 °F - 44.6 °F 59% 30.06 in 6.2 mi Variable 1.2 mph - N/A   Mostly Cloudy
6:30 PM 57.2 °F - 46.4 °F 67% 30.06 in 6.2 mi ESE 5.8 mph - N/A Rain Light Rain
7:00 PM 57.2 °F - 46.4 °F 67% 30.04 in 6.2 mi ESE 5.8 mph - N/A   Mostly Cloudy
7:30 PM 57.2 °F - 46.4 °F 67% 30.04 in 6.2 mi SE 4.6 mph - N/A   Mostly Cloudy
8:00 PM 55.4 °F - 46.4 °F 72% 30.04 in 6.2 mi Variable 3.5 mph - N/A   Mostly Cloudy
8:30 PM 55.4 °F - 48.2 °F 77% 30.04 in 6.2 mi NE 2.3 mph - N/A   Mostly Cloudy
9:00 PM 53.6 °F - 46.4 °F 77% 30.01 in 6.2 mi Variable 3.5 mph - N/A   Mostly Cloudy
9:30 PM 53.6 °F - 46.4 °F 77% 30.01 in 6.2 mi ENE 3.5 mph - N/A   Unknown
10:00 PM 53.6 °F - 46.4 °F 77% 30.01 in 6.2 mi ENE 3.5 mph - N/A   Mostly Cloudy
10:30 PM 53.6 °F - 46.4 °F 77% 30.01 in 6.2 mi East 5.8 mph - N/A   Unknown
11:00 PM 53.6 °F - 46.4 °F 77% 30.01 in 6.2 mi ESE 4.6 mph - N/A   Unknown
11:30 PM 51.8 °F - 46.4 °F 82% 29.98 in 6.2 mi Variable 2.3 mph - N/A   Unknown